Temp
84 84 87 86 88 67 77 79 71 76 86 81 71 71 72 72 69 66 76 72 77 86 87 90 91 92 93 95 97 98 98 99 98 98 98 99 99 98 97 96 95 92 94 93 93 92 93 93 92 92 90 90 89 89 89 87 87 88 87 87 87 88 87
85 89 89 88 88 89 82 71 78 87 89 85 73 64 67 65 61 65 75 70 73 73 70 89 89 88 91 93 95 98 97 98 97 97 97 97 98 98 97 96 95 94 94 94 94 95 95 94 94 92 90 91 90 90 90 88 87 86 88 88 88 88 87
85 89 87 83 88 90 84 80 91 76 66 64 72 68 58 60 59 64 71 75 75 77 75 83 84 86 89 91 93 95 96 97 97 97 97 97 99 99 97 97 95 95 95 95 93 96 97 96 93 93 92 93 92 92 92 93 89 90 90 91 90 88 88
84 84 82 69 77 86 89 90 83 88 81 72 66 68 70 69 63 63 67 72 69 80 82 87 85 87 90 92 92 93 97 97 98 98 99 98 96 97 98 97 97 96 96 97 98 97 98 96 95 96 96 96 96 94 92 92 93 91 90 90 89 88 89
83 71 78 75 78 74 76 77 77 79 79 85 81 78 72 68 64 65 66 65 73 82 91 89 88 89 90 93 92 93 95 98 101 100 100 99 97 97 97 98 98 97 97 99 99 99 99 100 98 98 98 97 97 97 95 94 92 93 92 92 91 89 89
73 76 84 84 83 82 79 77 75 78 74 70 64 63 78 75 69 60 65 64 76 84 93 90 91 93 93 94 94 94 97 99 99 101 101 101 99 97 98 100 101 100 98 99 100 99 99 100 100 98 99 99 98 97 97 96 97 95 95 93 90 89 89
75 81 86 88 89 88 84 82 79 82 80 78 70 58 66 74 74 77 74 68 72 88 90 91 92 94 96 96 96 95 98 99 101 101 104 101 98 98 100 100 102 101 99 98 98 97 96 97 97 99 98 99 99 98 98 98 97 97 98 96 94 90 89
81 85 88 87 88 87 82 83 85 82 77 79 76 74 76 71 73 69 70 64 74 88 89 90 93 93 97 97 98 96 98 100 100 100 100 100 97 96 99 100 101 100 100 98 95 95 94 94 95 97 98 98 99 99 99 100 99 98 98 98 96 92 90
68 74 77 79 85 85 80 79 82 84 84 83 82 82 80 70 74 74 69 62 73 85 89 90 93 94 95 96 98 98 96 97 100 100 98 97 95 94 96 96 97 97 98 96 92 93 91 92 96 96 96 97 99 99 100 100 100 100 99 98 97 95 93
52 53 55 60 67 73 80 82 82 83 82 80 76 70 72 63 70 72 70 70 79 84 85 88 90 92 91 94 97 100 99 96 98 99 97 92 92 91 92 93 94 95 94 94 92 91 91 94 95 93 94 97 99 99 99 102 101 100 100 100 99 96 95
65 67 65 71 75 77 72 77 79 81 83 84 81 77 71 65 69 69 72 74 77 77 83 84 88 90 90 92 94 95 96 98 97 92 91 94 91 91 93 92 93 92 91 91 91 91 94 96 96 96 97 97 99 96 97 101 101 101 98 98 96 97 96
62 65 66 71 71 74 76 76 76 81 81 81 78 73 70 76 71 64 73 75 75 78 82 85 86 89 89 91 92 95 96 94 95 95 92 89 93 94 92 92 91 90 90 90 90 90 93 95 95 96 97 98 97 96 97 99 101 102 100 98 96 95 95
65 66 68 71 71 71 71 76 78 76 79 79 75 74 79 77 70 67 74 75 73 79 86 88 88 88 89 93 94 96 97 97 97 93 94 97 98 95 94 91 90 90 91 89 90 92 92 94 95 95 96 97 96 96 97 97 101 101 99 97 95 96 94
64 67 68 69 69 69 70 72 72 75 77 77 78 78 80 79 73 76 77 76 77 83 85 89 90 92 93 94 95 96 95 97 95 95 94 98 100 100 97 94 94 91 91 91 90 91 90 92 93 96 95 94 96 96 97 99 97 100 98 96 94 94 94
62 66 68 67 68 67 66 70 72 74 74 75 77 77 78 78 77 80 79 75 74 85 88 88 91 92 94 93 93 94 93 94 96 95 97 97 98 99 99 96 96 95 93 92 91 90 90 90 92 93 94 94 96 99 99 100 97 99 100 95 95 94 92
60 65 66 67 67 67 66 67 70 71 72 70 73 72 76 74 70 73 75 71 73 83 88 89 88 89 88 88 89 90 92 96 95 94 96 95 95 97 99 100 98 94 94 92 92 91 93 93 92 93 92 95 97 98 99 99 100 101 100 97 95 91 92
59 65 65 64 64 64 61 64 69 72 74 75 78 78 78 78 79 73 69 72 81 84 86 86 87 88 89 89 91 90 91 91 94 93 95 97 98 98 97 98 96 98 99 97 93 95 97 96 95 96 95 96 94 96 96 98 99 100 99 98 93 91 92
58 61 62 64 60 51 56 74 79 77 74 74 72 74 77 80 81 78 82 82 85 86 86 84 84 86 87 89 91 94 91 90 91 95 96 98 99 100 101 100 100 97 95 96 98 97 96 97 101 100 97 97 96 98 99 99 99 97 95 96 94 92 91
54 60 59 55 49 54 68 74 77 76 79 78 77 78 80 82 83 83 82 83 83 84 86 86 86 87 90 93 93 95 98 95 92 91 94 94 94 95 95 95 98 96 92 91 92 92 97 100 99 99 99 99 98 99 98 98 96 94 95 94 94 92 90
58 55 56 45 52 64 69 73 74 76 77 76 73 72 76 78 81 81 79 82 84 85 86 88 89 89 92 92 91 91 94 96 94 94 94 96 98 97 98 94 91 88 91 91 94 94 95 97 100 101 100 101 101 101 101 99 98 96 95 93 94 93 91
49 54 55 56 64 63 67 67 70 73 70 70 70 66 72 79 75 76 76 77 81 84 85 86 88 87 87 85 87 95 96 95 96 97 97 98 97 95 92 93 92 90 88 89 91 91 92 96 99 101 102 103 101 101 100 99 96 98 96 92 92 92 91
58 53 52 54 54 50 60 68 72 75 75 74 73 69 69 73 76 75 75 75 77 78 81 81 81 82 80 78 84 93 98 100 97 97 96 95 92 92 92 90 90 89 89 89 90 91 93 93 96 99 101 101 99 97 97 99 98 97 96 92 91 91 91
55 52 49 50 49 56 67 67 72 74 76 76 74 68 66 70 75 74 75 76 75 75 76 76 77 77 76 79 86 87 91 95 95 92 91 92 92 90 89 89 90 90 89 87 90 91 90 93 95 96 99 99 99 95 95 99 98 95 93 92 91 91 91
53 53 50 49 56 57 66 71 73 76 77 75 71 57 62 68 75 74 74 73 75 75 73 74 75 74 75 82 84 85 88 86 87 84 84 85 85 88 89 90 88 85 85 85 86 90 93 92 95 95 98 97 95 94 95 99 98 95 93 92 93 93 93
51 49 52 57 59 67 71 72 75 76 77 72 60 54 64 70 73 74 74 75 75 74 73 74 72 77 80 82 83 86 85 86 85 85 85 85 85 85 87 86 82 86 88 88 89 91 88 87 92 97 98 95 93 93 93 93 94 97 95 94 93 92 92
50 52 50 51 59 68 74 76 78 77 70 59 60 66 70 73 72 74 74 74 74 74 73 73 74 76 80 82 84 83 84 82 82 82 84 85 86 87 83 82 83 86 88 85 88 90 88 90 92 94 93 91 90 90 91 91 93 97 96 93 92 92 91
54 53 49 48 41 62 71 71 71 74 62 67 68 72 74 75 75 74 74 74 74 73 72 75 74 76 79 81 81 79 79 80 80 80 80 80 81 81 81 82 84 86 85 85 86 86 89 90 90 92 93 89 89 89 89 90 94 95 95 93 91 91 90
46 47 45 46 59 61 69 68 61 64 68 70 73 72 74 76 76 75 74 74 73 73 72 72 74 75 76 76 77 77 78 79 80 81 80 79 81 82 83 83 81 85 84 84 84 83 84 85 86 89 90 88 88 88 88 89 92 93 92 91 91 90 90
46 50 57 61 60 65 70 69 68 68 70 74 73 73 73 74 75 73 73 72 74 75 71 71 72 72 74 73 74 72 74 76 76 77 77 77 79 82 79 79 78 81 82 80 82 81 83 82 83 84 87 87 86 83 83 87 88 89 90 90 90 89 90
57 59 59 62 64 65 69 71 70 69 70 72 74 73 71 73 73 73 72 72 72 70 70 69 71 72 72 70 72 73 74 74 75 75 76 77 79 82 80 78 78 79 80 78 77 76 78 81 82 82 83 84 81 81 84 85 87 89 89 88 88 88 89
49 44 60 60 62 65 66 67 69 70 72 70 72 70 70 72 74 75 73 71 69 69 68 67 65 66 68 68 70 70 72 73 73 75 75 76 76 76 76 76 77 78 78 77 75 75 75 78 81 83 83 83 83 83 84 87 87 86 87 88 87 87 88
47 49 57 59 62 63 65 66 66 66 68 68 68 69 70 71 72 73 72 72 69 68 67 66 66 66 66 65 67 70 71 71 73 74 74 74 75 76 76 76 76 76 76 75 74 75 75 78 79 80 80 81 82 83 85 85 87 87 86 87 87 87 88
54 58 59 60 61 62 64 66 68 69 67 66 65 66 68 72 72 73 72 71 70 69 67 68 67 66 65 66 66 68 69 69 70 71 72 72 73 74 75 75 76 76 76 75 75 75 76 77 78 78 78 79 80 80 81 83 84 83 84 84 86 87 87
48 51 56 60 54 56 64 67 65 64 66 65 65 66 66 69 70 71 73 72 72 71 69 68 67 65 65 66 67 67 67 67 68 68 69 71 71 72 73 74 74 74 75 75 75 75 75 76 77 77 78 79 81 82 82 82 81 79 79 80 82 83 85
48 57 60 61 58 56 58 60 64 65 66 66 64 63 63 67 71 69 70 72 71 69 68 69 66 65 65 66 68 69 69 68 69 69 69 70 71 71 73 73 72 73 73 75 75 75 75 76 77 77 78 79 80 81 82 82 82 81 80 78 79 79 79
55 59 59 59 57 54 58 62 63 64 65 65 64 65 66 68 70 70 68 70 69 68 68 68 68 67 67 69 71 70 70 70 71 71 72 72 72 72 73 72 72 72 73 72 72 72 75 76 76 77 77 78 78 79 80 82 83 82 82 81 80 80 80
52 59 59 59 58 59 62 63 63 64 64 64 63 64 66 68 69 70 68 67 70 69 67 67 69 71 71 72 71 70 70 70 71 71 71 72 72 72 72 72 72 72 72 72 73 74 75 75 76 76 76 77 78 80 80 80 80 80 80 81 82 82 83
MSLP
1001.24 1001.88 1001.44 1002.08 1001.88 1008.44 1004.84 1005.28 1007.20 1005.60 1003.48 1005.36 1007.88 1007.48 1007.64 1007.52 1008.40 1008.44 1005.24 1006.76 1004.92 1002.16 1001.68 1001.24 1000.68 1000.60 1000.28 999.68 999.60 999.48 999.48 999.36 999.36 999.88 1000.04 1000.20 1000.28 1000.48 1000.88 1001.28 1001.64 1001.96 1002.20 1002.56 1002.68 1003.04 1003.44 1003.76 1004.20 1004.56 1004.92 1005.24 1005.72 1006.24 1006.80 1007.40 1007.80 1008.16 1008.56 1008.92 1009.24 1009.56 1010.08
1000.64 1000.00 1000.52 1001.16 1001.32 1001.20 1003.28 1006.52 1004.56 1002.88 1002.40 1003.56 1006.80 1009.80 1008.40 1009.84 1010.52 1008.08 1005.60 1006.80 1006.16 1006.36 1006.72 1000.00 1000.84 1001.40 1000.72 1000.28 999.80 999.24 999.20 999.24 999.84 999.88 999.92 999.80 999.80 999.80 999.88 1000.16 1000.60 1001.12 1001.48 1001.92 1002.20 1002.32 1002.56 1002.88 1003.16 1003.68 1004.16 1004.48 1005.00 1005.44 1005.92 1006.68 1007.28 1007.80 1007.92 1008.28 1008.68 1009.04 1009.60
1000.48 999.84 1000.92 1002.28 1001.00 1000.48 1002.12 1003.60 1000.64 1005.20 1008.60 1009.52 1006.64 1008.44 1011.04 1010.48 1010.56 1008.64 1005.96 1004.88 1004.68 1004.16 1004.36 1002.00 1001.92 1001.44 1001.00 1000.36 999.84 999.56 999.60 999.44 999.48 999.48 999.52 999.32 999.20 999.40 999.88 1000.28 1000.72 1001.00 1001.16 1001.28 1001.48 1001.48 1001.44 1001.80 1002.32 1002.76 1003.28 1003.84 1004.40 1004.88 1005.16 1005.60 1006.24 1006.44 1006.88 1007.32 1007.88 1008.36 1008.76
1000.20 1000.84 1001.60 1004.80 1003.36 1001.40 1000.60 1000.52 1002.32 1001.40 1003.64 1006.12 1008.16 1007.24 1006.24 1006.52 1008.28 1008.32 1006.72 1005.48 1006.12 1002.52 1002.20 1000.80 1001.16 1000.60 1000.00 999.76 999.80 999.84 999.08 998.84 998.84 998.76 998.72 999.08 999.40 999.40 999.40 999.64 999.84 1000.04 1000.16 1000.28 1000.52 1000.84 1001.08 1001.36 1001.84 1002.24 1002.76 1003.20 1003.72 1004.08 1004.72 1005.12 1005.44 1005.96 1006.48 1006.92 1007.28 1007.84 1008.00
1000.12 1003.40 1001.24 1002.28 1002.04 1003.68 1003.52 1003.64 1003.64 1003.20 1003.64 1001.60 1003.16 1004.08 1005.72 1006.60 1007.60 1007.12 1006.92 1007.16 1004.16 1000.80 998.56 999.60 999.92 999.68 999.48 999.12 999.32 999.08 998.76 998.08 997.84 997.92 997.96 998.20 998.64 998.88 998.88 998.88 999.08 999.32 999.52 999.60 999.80 1000.12 1000.40 1000.76 1001.36 1001.84 1002.20 1002.64 1002.92 1003.36 1004.08 1004.44 1005.12 1005.52 1005.92 1006.12 1006.56 1006.96 1007.24
1001.96 1000.80 999.44 999.64 1000.20 1000.76 1001.84 1002.72 1003.48 1002.64 1004.64 1005.64 1007.72 1007.60 1003.80 1004.48 1005.84 1007.36 1007.48 1007.40 1002.72 1000.76 998.08 998.80 998.84 998.52 998.56 998.36 998.40 998.48 998.16 997.76 997.40 997.20 997.20 997.36 998.08 998.24 998.24 998.20 998.28 998.60 999.04 999.36 999.52 999.84 1000.20 1000.52 1000.88 1001.32 1001.44 1001.92 1002.44 1002.84 1003.04 1003.56 1004.04 1004.60 1005.00 1005.48 1005.84 1006.28 1006.64
1001.24 999.92 998.52 998.36 998.28 999.00 1000.12 1001.08 1002.08 1001.28 1002.12 1002.76 1005.32 1008.12 1005.96 1004.72 1004.08 1003.56 1004.24 1006.08 1004.00 998.96 998.56 998.20 998.24 998.00 997.72 997.60 997.72 998.16 997.68 997.36 997.04 996.96 996.84 997.24 997.76 998.08 998.12 998.20 998.16 998.32 998.72 999.12 999.28 999.60 1000.00 1000.08 1000.24 1000.56 1001.00 1001.32 1001.68 1002.04 1002.36 1002.80 1003.32 1003.68 1003.80 1004.32 1004.80 1005.44 1005.96
999.20 998.32 997.64 998.48 998.24 999.00 1000.64 1000.36 999.84 1000.80 1002.04 1001.60 1003.00 1003.48 1002.64 1004.68 1004.20 1005.72 1005.52 1007.24 1003.80 999.08 998.60 998.56 998.16 997.88 997.28 996.92 997.16 997.64 997.44 997.12 996.96 997.04 997.16 997.20 997.84 998.08 997.88 997.72 997.84 998.08 998.28 998.76 999.20 999.56 999.72 999.92 1000.12 1000.20 1000.28 1000.48 1000.80 1001.20 1001.60 1001.96 1002.56 1002.80 1003.12 1003.52 1004.12 1004.84 1005.40
1002.92 1001.68 1000.80 1000.52 998.96 999.00 999.92 1000.28 999.80 999.48 999.88 1000.52 1000.72 1001.20 1001.08 1004.24 1003.20 1003.44 1005.28 1007.48 1004.28 999.60 998.60 998.32 997.92 997.88 997.80 997.64 997.12 997.00 997.76 997.44 997.12 997.08 997.44 997.68 998.00 998.24 998.20 998.20 998.16 998.16 998.28 998.68 999.04 999.08 999.40 999.60 999.60 999.80 1000.00 1000.20 1000.32 1000.52 1000.72 1001.12 1001.44 1001.76 1002.32 1002.68 1003.36 1004.00 1004.56
1006.28 1006.16 1005.80 1004.12 1002.56 1000.84 999.52 999.16 999.28 999.48 999.96 1000.76 1002.04 1004.08 1003.32 1005.64 1003.60 1003.04 1004.20 1004.36 1001.04 1000.24 999.72 999.28 998.88 998.48 998.52 997.72 997.12 996.52 996.72 997.44 997.52 997.24 997.68 998.36 998.44 998.60 998.44 998.36 998.36 998.48 998.40 998.48 998.84 999.00 999.12 999.28 999.40 999.60 999.68 999.64 999.72 999.88 1000.08 1000.08 1000.68 1001.20 1001.64 1001.96 1002.48 1003.20 1003.80
1002.20 1001.88 1002.48 1001.28 999.96 999.72 1001.32 1000.24 999.80 999.68 999.44 999.36 1000.36 1001.44 1003.04 1004.76 1004.16 1004.28 1002.84 1002.68 1001.88 1002.48 1000.96 1000.44 999.48 998.84 999.00 998.56 997.88 997.60 997.40 997.00 997.28 998.12 998.44 998.20 998.36 998.40 998.20 998.32 998.24 998.36 998.60 998.64 998.60 998.72 998.76 998.84 999.00 999.16 999.32 999.52 999.56 999.76 999.88 999.84 1000.00 1000.52 1001.00 1001.48 1002.00 1002.52 1003.04
1004.04 1003.24 1002.88 1001.64 1001.44 1000.44 1000.00 1000.56 1000.52 999.40 999.56 999.84 1000.76 1001.96 1002.72 1001.08 1003.36 1005.04 1002.16 1002.04 1002.96 1001.96 1000.88 1000.28 999.88 999.20 998.96 998.68 998.32 997.72 997.20 997.64 997.76 997.68 998.08 998.24 998.12 997.92 998.00 998.20 998.48 998.68 998.60 998.56 998.64 998.64 998.60 998.60 998.60 998.72 998.80 998.92 999.20 999.44 999.68 999.68 999.76 1000.08 1000.44 1000.96 1001.52 1002.00 1002.44
1003.60 1003.20 1002.56 1001.80 1001.84 1001.60 1001.40 1000.28 999.72 1000.56 999.96 999.96 1001.16 1001.16 1000.60 1000.80 1003.04 1004.00 1002.08 1001.76 1002.96 1001.72 999.96 999.20 999.08 999.04 999.00 998.44 997.84 997.12 997.00 997.20 997.08 997.72 997.80 997.68 997.52 997.76 998.04 998.28 998.28 998.36 998.48 998.48 998.44 998.40 998.44 998.36 998.44 998.48 998.52 998.60 998.68 998.88 999.00 999.28 999.40 999.60 999.80 1000.44 1001.04 1001.52 1001.96
1003.80 1003.00 1002.80 1002.52 1002.56 1002.48 1002.36 1001.88 1001.80 1000.96 1000.60 1000.76 1000.68 1000.80 1000.28 1000.52 1001.52 1001.44 1001.36 1001.68 1001.92 1000.68 1000.00 999.12 998.52 997.92 998.04 997.92 997.32 997.00 997.20 997.16 997.12 997.56 997.80 997.56 997.00 996.84 997.32 997.60 997.64 997.84 997.88 997.96 998.16 998.12 998.20 998.20 998.20 998.24 998.32 998.40 998.36 998.56 998.72 998.84 999.08 999.00 999.44 1000.12 1000.68 1001.04 1001.52
1003.92 1003.08 1002.64 1003.24 1003.08 1003.20 1003.56 1002.40 1001.92 1001.72 1001.48 1001.40 1001.12 1001.32 1001.04 1000.84 1001.04 1000.64 1001.00 1001.88 1002.20 999.48 998.56 998.72 997.80 997.48 997.44 997.72 998.12 998.04 997.68 997.48 997.48 997.52 997.44 997.40 997.24 996.96 996.72 996.92 997.08 997.00 997.36 997.44 997.68 997.88 997.92 997.88 997.88 997.92 997.88 997.92 998.00 998.12 998.32 998.48 998.76 998.72 999.04 999.84 1000.32 1000.72 1001.00
1004.24 1003.40 1003.44 1003.04 1003.24 1003.32 1003.48 1003.20 1002.44 1002.16 1002.16 1002.68 1001.96 1002.40 1001.24 1002.12 1002.80 1002.20 1002.16 1003.00 1002.52 1000.00 998.60 998.56 998.72 998.68 999.04 999.24 999.04 998.76 998.32 997.60 997.36 997.48 997.24 997.36 997.24 996.80 996.40 996.20 996.40 996.88 997.08 997.32 997.40 997.48 997.32 997.28 997.40 997.44 997.48 997.48 997.64 997.72 997.64 997.88 998.00 998.24 998.76 999.32 999.92 1000.28 1000.40
1004.28 1003.28 1003.52 1003.72 1003.68 1004.12 1004.40 1003.24 1002.04 1001.48 1001.24 1000.88 1000.56 1000.44 1000.32 1000.64 1000.84 1002.20 1002.96 1002.04 1000.08 999.28 998.60 999.20 999.00 999.08 998.72 998.64 998.52 998.52 998.16 997.76 997.48 997.36 997.04 996.64 996.28 996.08 995.96 995.92 996.20 996.16 996.24 996.40 996.76 996.56 996.36 996.44 996.60 996.56 996.76 997.16 997.32 997.12 997.24 997.32 997.68 998.24 998.60 998.88 999.48 1000.04 1000.32
1004.32 1004.12 1004.36 1003.92 1004.76 1006.40 1004.20 999.64 998.76 999.60 1000.96 1000.96 1001.72 1001.28 1000.56 999.72 999.68 1000.16 999.32 999.32 998.56 998.56 998.76 999.44 999.52 999.16 998.60 998.16 997.48 997.00 997.52 997.80 997.52 996.96 996.56 996.24 996.00 995.72 995.56 995.52 995.76 995.88 996.04 996.04 995.84 995.88 995.92 995.72 995.56 995.68 995.84 996.12 996.12 996.36 996.80 997.20 997.64 997.80 998.24 998.60 999.16 999.88 1000.20
1005.96 1004.64 1004.88 1005.72 1006.72 1004.48 1001.24 1000.00 999.52 999.60 999.28 999.56 1000.08 999.80 999.36 998.88 998.76 999.08 999.40 999.32 999.20 998.76 998.52 998.56 998.48 998.16 997.64 997.12 997.12 996.84 996.20 996.52 997.24 997.44 997.12 996.92 996.68 996.48 996.24 996.08 995.72 995.80 996.12 996.20 996.20 996.20 995.76 995.32 995.20 995.24 995.44 995.44 995.84 996.24 996.36 996.72 996.92 997.48 997.84 998.36 998.72 999.24 999.72
1005.40 1005.48 1005.04 1007.36 1004.80 1002.36 1001.20 1000.24 1000.40 999.84 999.88 1000.16 1001.08 1001.36 1000.40 999.92 999.28 999.24 999.92 999.16 998.64 998.36 998.36 998.04 997.60 997.68 997.24 997.12 997.12 997.08 996.64 996.40 996.84 997.00 996.84 996.36 996.04 996.00 995.68 996.00 996.28 996.48 996.28 996.20 995.96 995.80 995.28 995.20 995.00 994.92 995.04 995.04 995.48 995.76 995.84 996.36 996.68 997.00 997.48 998.04 998.40 998.64 999.08
1007.00 1005.52 1004.96 1004.00 1001.52 1002.60 1001.52 1001.76 1001.24 1000.56 1001.36 1001.52 1001.44 1002.60 1000.68 999.52 1000.48 1000.48 1000.56 1000.24 999.60 998.96 998.68 998.48 998.00 997.92 998.24 998.84 998.08 996.40 996.00 995.96 995.80 995.96 995.92 995.64 995.68 995.84 996.00 995.96 996.00 995.92 996.00 996.12 995.76 995.60 995.60 995.16 994.80 994.68 994.48 994.60 994.96 995.28 995.72 995.92 996.32 996.68 997.12 997.76 997.96 998.04 998.20
1005.36 1005.92 1005.68 1004.88 1004.72 1005.64 1002.92 1001.12 1001.12 1000.36 1000.48 1000.68 1000.84 1001.60 1001.56 1000.80 1000.36 1000.60 1000.68 1000.80 1000.36 1000.08 999.60 999.40 999.36 999.12 1000.00 1000.40 998.88 996.40 995.16 994.72 995.24 995.28 995.48 995.60 995.96 996.00 995.92 995.92 995.96 995.88 995.76 995.68 995.44 995.48 995.28 995.16 994.72 994.28 994.16 994.36 994.76 995.24 995.48 995.64 996.16 996.56 996.84 997.20 997.20 997.44 997.72
1005.84 1006.20 1006.56 1005.36 1005.56 1003.56 1001.04 1001.72 1000.84 1000.68 1000.28 1000.52 1000.64 1002.40 1002.32 1001.36 1000.48 1000.80 1000.60 1000.60 1000.52 1000.60 1000.60 1000.44 1000.16 1000.52 1001.16 999.88 997.84 997.16 996.00 995.32 995.40 996.04 996.08 996.04 995.92 996.04 996.16 996.20 996.16 995.80 995.72 995.72 995.44 995.12 995.08 995.08 994.48 994.24 994.12 994.28 994.64 995.20 995.40 995.44 995.80 996.36 996.48 996.44 996.64 996.92 997.20
1006.00 1005.52 1005.88 1005.80 1003.96 1003.44 1001.56 1001.00 1000.80 1000.32 1000.08 1000.52 1001.48 1004.80 1002.68 1001.84 1000.60 1000.84 1000.80 1001.04 1000.72 1000.64 1000.84 1000.80 1000.84 1000.96 1000.92 999.00 998.12 997.88 997.16 997.28 996.92 997.32 997.32 997.08 996.88 996.40 996.00 995.68 995.92 996.08 995.92 995.88 995.76 995.28 994.92 994.76 994.12 994.04 994.04 994.28 994.64 995.00 995.28 995.24 995.56 995.92 995.88 995.96 996.24 996.64 996.96
1006.36 1006.60 1005.48 1004.24 1003.20 1001.40 1000.88 1000.96 1000.44 1000.40 999.92 1000.96 1003.88 1004.48 1002.44 1001.44 1000.88 1000.68 1000.76 1000.60 1000.48 1000.60 1000.96 1000.84 1001.24 999.68 998.92 998.48 998.08 997.52 997.68 997.48 997.40 997.16 997.08 997.00 996.80 996.76 996.36 996.36 996.40 996.00 995.68 995.64 995.56 995.08 995.00 994.84 994.28 993.84 993.88 994.40 994.88 995.00 995.20 995.40 995.48 995.36 995.52 995.76 996.00 996.24 996.52
1006.12 1005.76 1006.16 1005.28 1003.36 1000.88 1000.28 999.96 999.88 999.88 1001.64 1003.92 1002.92 1002.12 1001.44 1000.80 1001.04 1000.52 1000.68 1000.72 1000.56 1000.60 1000.80 1000.76 1000.56 1000.00 999.08 998.48 998.08 998.16 997.96 998.16 997.92 997.72 997.28 997.08 996.72 996.44 996.60 996.44 996.28 996.12 995.80 995.96 995.60 995.32 995.12 994.68 994.36 994.12 994.20 994.68 994.92 995.12 995.36 995.56 995.32 994.84 994.96 995.44 995.76 996.04 996.36
1005.72 1005.36 1005.96 1005.80 1007.44 1002.24 1001.56 1001.20 1001.28 1000.64 1003.36 1001.24 1001.64 1000.76 1000.60 1000.48 1000.28 1000.52 1000.36 1000.48 1000.40 1000.64 1000.80 1000.32 1000.28 999.96 999.32 998.80 998.64 998.80 998.92 998.56 998.32 998.16 998.00 997.92 997.76 997.56 997.32 996.92 996.32 996.04 996.20 996.24 996.08 995.88 995.28 994.88 994.56 994.20 994.28 995.00 995.16 995.20 995.56 995.24 994.72 994.68 994.92 995.24 995.64 995.92 996.20
1006.20 1006.20 1006.44 1005.72 1003.44 1003.64 1002.36 1002.52 1003.36 1002.60 1001.96 1001.40 1000.92 1001.00 1000.40 1000.12 1000.32 1000.24 1000.44 1000.28 1000.56 1000.68 1000.96 1000.68 1000.36 999.96 999.52 999.32 999.12 999.16 998.96 998.76 998.24 997.92 997.92 997.96 997.72 997.48 997.20 997.08 997.08 996.36 996.24 996.36 996.40 996.32 996.08 995.64 995.08 994.68 994.52 995.16 995.28 995.40 995.56 995.00 994.68 994.72 995.04 995.36 995.60 995.96 996.24
1007.68 1005.12 1003.76 1003.20 1004.16 1003.40 1002.72 1002.64 1002.68 1002.80 1002.20 1001.20 1001.24 1001.32 1001.20 1000.92 1000.44 1000.84 1000.80 1000.80 1000.48 1000.44 1001.00 1000.76 1000.48 1000.36 999.80 999.92 999.84 1000.00 999.44 999.16 999.00 998.72 998.56 998.36 998.08 997.52 997.88 997.88 997.48 996.80 996.76 996.88 996.72 996.72 996.40 996.20 995.76 995.36 994.96 995.16 995.56 996.00 995.80 995.24 995.24 995.28 995.32 995.48 995.76 996.04 996.20
1006.40 1005.56 1005.08 1004.48 1003.88 1003.24 1002.68 1002.48 1002.76 1002.88 1002.72 1002.12 1001.68 1001.68 1001.72 1001.08 1001.16 1001.08 1001.20 1000.96 1000.92 1001.16 1001.00 1001.04 1000.36 1000.20 1000.08 1000.28 999.96 999.72 999.48 999.36 999.20 999.00 998.64 998.28 997.88 997.48 997.68 997.84 997.60 997.20 996.96 997.16 997.28 997.40 996.96 996.44 996.20 995.92 995.72 995.68 996.24 996.28 995.76 995.56 995.36 995.32 995.40 995.64 995.92 996.08 996.12
1007.68 1007.32 1004.68 1004.52 1004.04 1003.40 1003.32 1003.32 1002.96 1002.72 1002.64 1002.60 1002.24 1002.32 1002.12 1001.76 1001.28 1000.92 1001.00 1001.12 1001.24 1001.36 1001.24 1001.32 1001.40 1001.08 1000.68 1000.52 1000.28 1000.08 999.72 999.52 999.32 999.04 998.88 998.60 998.28 998.24 998.28 998.12 997.64 997.44 997.32 997.52 997.68 997.60 997.52 996.88 996.48 996.24 996.08 995.96 996.04 995.92 995.88 995.52 995.44 995.48 995.56 995.68 995.92 996.04 996.20
1007.72 1006.72 1005.52 1005.04 1004.64 1004.24 1003.80 1003.52 1003.44 1003.36 1003.16 1002.96 1002.92 1002.64 1002.24 1002.00 1001.72 1001.36 1001.16 1000.96 1001.36 1001.32 1001.52 1001.48 1001.28 1001.20 1001.08 1001.08 1000.84 1000.16 999.88 999.64 999.40 999.16 999.08 998.88 998.52 998.20 998.04 998.00 997.88 997.68 997.64 997.80 997.84 997.72 997.60 997.16 996.92 996.84 996.72 996.56 996.32 996.04 995.84 995.64 995.44 995.44 995.72 995.84 995.96 996.12 996.16
1006.24 1005.52 1005.36 1005.08 1004.80 1004.44 1003.72 1003.20 1003.08 1002.96 1003.32 1003.48 1003.28 1003.12 1002.76 1001.96 1001.80 1001.36 1001.16 1001.08 1001.00 1001.12 1001.32 1001.12 1001.20 1001.36 1001.44 1001.24 1001.08 1000.60 1000.32 1000.08 999.76 999.56 999.44 999.28 998.96 998.60 998.40 998.36 998.08 998.00 997.88 997.92 997.88 997.76 997.68 997.44 997.36 997.32 997.32 997.08 996.84 996.68 996.40 996.12 995.88 996.00 996.08 996.04 996.00 996.16 996.24
1006.72 1005.92 1004.84 1004.56 1005.28 1004.20 1002.88 1002.64 1003.44 1003.96 1003.72 1003.64 1003.48 1003.04 1003.00 1002.48 1002.16 1001.80 1001.20 1000.96 1000.64 1000.84 1001.04 1001.12 1001.20 1001.52 1001.56 1001.40 1000.96 1000.80 1000.72 1000.48 1000.20 1000.04 999.84 999.48 999.32 999.08 998.76 998.52 998.36 998.32 998.16 998.00 998.04 998.00 997.92 997.72 997.68 997.68 997.64 997.36 997.08 996.88 996.72 996.60 996.52 996.88 997.00 996.92 996.84 996.84 996.68
1005.96 1004.60 1004.28 1004.56 1005.16 1005.20 1004.68 1004.40 1004.00 1003.92 1003.76 1003.64 1003.56 1003.56 1003.40 1002.72 1002.00 1002.12 1001.80 1001.20 1000.92 1001.00 1001.00 1000.92 1001.32 1001.52 1001.44 1001.36 1000.88 1000.64 1000.60 1000.52 1000.20 999.96 999.92 999.76 999.52 999.28 998.88 998.76 998.84 998.80 998.68 998.40 998.20 998.24 998.04 997.84 997.84 997.80 997.72 997.56 997.44 997.20 997.00 996.84 996.72 996.92 997.04 997.32 997.44 997.56 997.60
1005.56 1005.32 1005.20 1005.24 1005.52 1005.44 1004.52 1004.20 1004.24 1004.08 1003.84 1003.80 1003.60 1003.32 1003.04 1002.56 1002.20 1002.08 1002.20 1001.72 1001.32 1001.08 1001.08 1001.16 1000.96 1001.08 1001.12 1000.80 1000.44 1000.48 1000.40 1000.24 999.96 999.80 999.64 999.44 999.36 999.28 999.16 999.08 999.04 999.00 999.00 998.96 998.92 998.80 998.40 998.20 998.12 998.04 998.00 997.88 997.80 997.68 997.44 997.12 996.92 996.96 996.96 997.12 997.48 997.60 997.68
1005.72 1005.28 1005.24 1005.32 1005.24 1004.96 1004.36 1004.16 1004.00 1003.96 1003.84 1003.84 1003.64 1003.24 1002.88 1002.56 1002.24 1002.16 1002.16 1002.16 1001.32 1000.80 1001.16 1001.48 1000.96 1000.56 1000.52 1000.36 1000.28 1000.36 1000.48 1000.40 1000.08 999.88 999.72 999.60 999.52 999.52 999.40 999.24 999.20 999.24 999.32 999.24 999.08 998.88 998.68 998.52 998.36 998.32 998.32 998.20 997.96 997.80 997.68 997.56 997.44 997.48 997.48 997.48 997.64 997.64 997.64
Wind_Speed
17 21 19 18 16 13 14 15 18 16 11 12 10 6 5 7 5 11 7 11 13 9 11 9 7 8 9 11 13 13 14 14 13 13 14 16 16 17 18 18 18 21 20 20 20 21 19 20 21 22 21 21 22 20 20 21 21 19 21 21 20 19 18
18 19 21 20 19 12 10 16 14 12 12 12 10 10 7 10 12 10 11 15 10 10 9 11 18 14 13 14 14 14 14 13 13 13 13 14 16 17 20 20 19 20 20 22 20 19 21 21 23 23 23 22 20 20 21 21 21 22 21 20 20 19 20
18 18 18 18 20 21 13 11 12 14 14 14 11 7 13 11 13 10 12 13 13 11 9 4 10 16 15 13 13 13 14 14 14 14 16 16 16 15 15 16 16 17 19 21 21 23 25 24 22 23 22 22 20 20 21 22 23 24 23 20 20 18 19
18 16 16 18 17 20 19 11 13 14 9 11 12 13 7 8 11 9 11 13 11 9 10 10 6 9 12 13 13 14 15 15 14 14 14 15 15 14 15 16 17 19 21 23 24 23 23 23 23 21 22 21 23 22 21 21 21 20 20 20 20 20 20
18 16 15 18 17 18 17 16 14 14 11 6 10 10 13 10 9 10 7 8 6 5 8 12 14 11 10 10 11 12 12 13 15 14 13 13 15 15 15 16 17 19 20 21 22 21 20 20 18 18 20 22 22 21 22 22 22 22 23 22 21 19 18
16 14 15 17 19 18 17 15 15 15 15 13 13 12 11 13 10 6 7 8 2 4 1 5 8 11 11 11 11 10 12 13 12 11 14 12 12 14 15 16 16 16 17 17 18 17 16 18 19 21 20 20 21 22 21 22 22 21 22 22 20 19 18
11 13 15 17 17 18 19 17 15 16 15 12 11 10 11 11 12 9 8 7 5 7 5 5 4 2 5 7 9 10 9 9 10 10 9 8 8 9 10 11 11 12 13 14 16 17 18 20 20 21 20 19 20 22 22 20 22 23 22 22 21 19 19
8 11 12 18 19 20 20 19 18 17 18 17 12 10 6 9 10 11 9 10 5 4 4 5 8 8 7 5 6 7 8 8 7 6 6 5 6 8 8 8 9 9 10 12 13 17 18 18 18 20 20 20 20 20 21 20 23 24 23 21 20 20 19
6 8 9 13 17 17 15 15 18 19 17 19 16 12 9 11 12 13 10 11 6 7 6 4 4 6 5 3 5 4 4 4 6 5 2 3 5 6 8 9 9 10 12 14 15 16 16 17 18 18 19 20 20 20 21 21 21 23 21 20 20 21 21
16 17 17 18 19 18 13 15 19 22 22 22 17 15 12 11 10 14 11 8 2 9 4 7 5 4 3 1 3 1 3 4 4 3 2 3 4 5 6 8 10 12 11 11 13 15 14 16 17 17 17 19 20 20 21 21 21 20 21 20 21 21 20
12 4 4 8 5 15 17 19 19 20 21 20 18 12 13 13 10 13 12 9 5 10 9 9 8 6 5 3 3 3 3 2 2 2 1 3 4 6 7 8 7 8 10 13 14 15 16 17 17 17 18 18 18 17 19 20 19 19 19 20 20 20 20
3 3 4 6 7 8 19 21 20 18 20 21 20 18 14 8 9 13 10 12 13 9 10 7 4 3 4 4 6 7 4 3 5 5 2 4 5 5 5 6 9 11 12 12 13 14 16 16 17 17 17 18 18 18 19 19 19 18 17 19 20 20 19
2 3 2 3 1 1 1 8 14 21 19 20 23 20 17 14 13 9 7 12 15 14 13 9 7 5 5 5 7 6 6 7 5 1 6 9 4 7 8 8 8 10 11 11 13 13 14 16 18 19 18 18 17 17 18 18 19 20 18 19 20 20 19
2 3 2 2 4 2 6 8 7 9 14 17 17 16 17 20 15 11 12 9 13 12 14 15 14 12 11 10 10 12 13 13 10 9 9 10 7 3 4 7 9 10 10 9 11 12 13 16 17 18 17 17 19 19 19 19 19 19 17 18 19 19 20
5 6 5 3 5 3 7 9 10 11 10 10 12 12 14 14 15 17 16 16 15 11 9 10 11 9 8 8 10 11 13 16 17 16 13 11 10 9 6 5 7 6 7 8 9 12 14 15 17 17 16 16 17 19 18 19 19 19 18 17 18 19 19
7 7 8 5 3 7 9 11 13 13 14 15 12 12 11 13 13 13 13 13 12 8 9 6 7 8 10 11 12 12 12 14 15 15 14 13 12 13 12 9 3 5 6 8 10 12 14 15 17 17 16 17 17 19 19 19 19 18 18 19 19 18 18
7 8 5 4 5 6 12 16 16 16 17 16 13 14 14 14 12 14 16 14 8 9 9 12 10 11 13 13 13 12 14 14 15 16 16 15 15 15 13 12 6 6 7 8 10 11 12 13 15 18 17 16 17 18 17 17 14 16 19 19 17 16 16
6 5 3 2 6 12 12 2 11 18 18 16 17 14 15 15 15 13 12 10 7 9 9 9 10 11 11 10 11 11 11 12 13 15 15 15 16 16 15 13 9 6 5 5 6 8 10 11 14 14 16 18 17 16 16 14 16 16 17 17 16 15 15
6 3 3 6 12 10 6 3 4 2 8 8 11 10 12 13 13 15 16 13 12 10 7 6 7 8 9 11 13 13 12 8 8 11 13 14 13 13 13 13 13 8 5 5 6 7 8 9 10 12 14 16 14 14 16 17 17 15 16 17 16 16 16
6 6 7 10 8 7 2 3 4 4 4 5 5 13 13 15 15 10 10 9 10 11 12 13 12 12 11 9 8 9 13 14 13 13 13 14 15 14 10 8 5 4 6 6 7 6 6 8 10 12 13 13 14 16 16 17 17 17 17 16 17 16 17
8 8 8 11 3 4 5 5 5 4 6 6 7 10 12 6 4 1 5 6 9 12 10 7 8 7 7 9 11 13 16 15 14 14 14 13 10 7 6 7 8 6 6 7 8 7 7 9 9 10 10 12 13 14 16 16 17 17 17 17 18 17 18
8 8 8 8 9 11 8 4 8 4 5 3 2 5 3 7 4 2 2 5 5 7 6 5 5 7 8 11 10 12 16 15 13 10 8 7 6 7 7 6 7 8 8 8 8 9 9 9 10 8 9 11 12 13 15 15 17 17 18 18 18 17 16
8 10 10 9 9 5 6 7 7 7 2 2 3 2 9 7 4 3 1 4 4 5 5 5 5 5 9 10 8 7 11 6 3 4 3 4 4 5 5 7 8 8 7 7 9 9 9 9 8 9 10 12 13 13 14 15 16 16 17 17 17 17 15
9 9 10 11 6 5 6 6 5 6 3 2 5 7 6 9 4 3 2 4 5 6 5 5 5 6 8 8 3 9 9 7 5 4 5 5 5 4 5 4 5 7 7 8 9 10 10 8 7 8 10 10 11 11 13 14 15 16 17 14 11 11 11
10 11 9 7 6 4 1 5 5 5 2 1 6 6 5 4 2 1 2 5 5 5 6 4 6 4 5 8 9 8 8 8 5 4 4 5 5 5 5 6 6 6 4 4 5 4 3 1 3 6 8 9 10 10 11 12 14 13 11 10 11 12 12
11 11 12 10 7 2 2 8 10 3 4 6 5 4 3 2 3 1 4 4 4 4 6 6 7 8 11 13 12 11 9 7 6 6 6 6 5 4 6 5 4 5 4 4 4 2 1 1 4 5 6 8 9 9 11 12 12 9 8 10 10 12 14
9 10 10 8 9 5 7 7 3 4 9 4 6 3 2 2 3 4 3 3 3 3 6 7 9 11 11 11 10 9 9 9 6 5 6 6 7 7 6 6 7 6 3 4 4 6 4 4 2 2 6 7 8 8 9 10 9 9 8 9 10 12 12
11 10 11 6 1 8 7 7 4 6 8 9 8 8 6 1 4 4 4 3 4 6 7 9 9 10 10 9 9 10 9 7 6 3 3 4 5 4 5 6 6 7 3 4 5 6 7 6 4 3 3 6 6 7 5 3 5 6 7 7 8 9 10
4 5 5 7 14 11 7 7 7 10 12 10 9 7 7 7 3 3 5 4 5 7 7 8 8 7 7 8 8 8 7 6 5 4 3 3 3 2 4 5 5 4 5 5 6 7 7 8 7 7 5 5 7 6 5 2 3 4 6 6 7 8 9
7 13 14 13 13 14 11 9 8 10 13 12 10 9 8 4 6 5 5 5 6 5 5 6 7 7 6 6 7 6 5 5 3 3 2 1 2 2 3 4 4 4 5 7 7 8 9 8 7 7 7 7 7 5 3 2 1 3 5 6 7 8 8
6 6 2 10 12 14 13 12 12 10 9 9 9 9 8 7 7 6 4 4 4 3 4 3 4 3 3 4 4 4 4 3 2 2 1 2 3 4 4 4 4 4 5 7 8 9 9 9 7 7 8 7 6 4 3 0 1 2 3 5 6 7 8
10 11 12 15 16 15 16 13 11 10 11 12 12 10 9 9 7 7 4 2 1 1 1 3 4 2 3 5 6 3 2 3 2 2 2 3 4 5 5 5 5 5 6 7 8 8 8 8 7 8 8 8 7 5 4 3 1 3 3 3 5 6 7
10 13 14 15 16 17 18 17 14 8 6 10 13 13 13 10 9 7 3 0 2 2 2 1 3 4 5 5 6 4 4 4 4 4 4 4 5 5 6 7 7 6 6 7 8 8 8 7 8 7 8 7 6 6 5 5 5 5 4 5 5 5 4
12 11 9 6 9 9 8 7 4 8 10 11 13 14 14 12 10 9 6 2 2 3 4 4 2 3 4 5 5 4 5 5 5 5 4 4 4 5 5 5 7 7 7 7 7 8 7 7 7 7 7 7 7 7 6 5 5 7 8 8 7 5 4
11 10 10 7 9 12 14 14 13 12 12 12 13 13 13 13 10 10 8 3 4 4 4 4 4 3 3 4 4 5 5 5 5 5 6 6 5 5 5 6 7 6 6 6 8 8 7 7 7 7 7 7 7 7 7 6 5 6 7 7 6 6 5
18 18 17 15 14 16 17 16 15 14 13 12 15 14 14 13 9 7 6 4 3 5 4 4 4 5 4 4 4 6 6 6 5 6 6 5 6 7 7 7 7 7 7 7 7 7 6 6 7 7 7 7 7 7 6 5 5 6 5 5 5 5 5
14 12 13 13 14 17 17 17 16 15 15 14 14 14 14 13 10 10 5 2 1 6 5 3 4 5 5 5 6 6 7 6 6 5 6 7 8 8 7 8 8 8 8 6 6 6 7 7 8 7 7 8 7 7 7 6 6 6 6 6 5 5 5
Wind_Direction
191 194 190 202 187 200 183 197 208 210 204 219 236 253 293 327 282 238 201 223 244 282 269 246 212 205 207 203 210 213 214 212 211 204 198 198 199 198 198 200 199 198 196 194 193 190 190 190 189 191 190 190 191 188 187 189 189 188 189 191 192 195 198
194 190 192 197 193 221 169 205 204 197 213 230 224 243 199 221 236 235 215 230 226 216 266 205 209 211 207 208 210 213 210 207 203 201 202 199 200 198 199 200 197 195 195 195 195 193 193 191 190 190 189 189 189 190 188 186 187 190 191 190 192 192 195
180 184 187 200 202 210 221 206 175 193 182 205 210 232 227 213 224 239 230 235 244 231 222 131 200 211 211 207 206 213 210 207 206 203 203 204 204 202 200 200 196 195 197 197 195 195 194 194 192 190 188 187 188 191 192 190 190 190 189 189 190 192 195
173 184 187 201 194 199 223 210 199 203 206 208 195 207 240 233 241 232 231 222 241 217 239 232 208 203 215 210 206 213 216 209 208 208 205 200 200 201 201 199 198 198 198 198 198 199 197 193 191 190 189 189 191 191 191 194 194 192 190 191 189 192 194
171 195 194 204 188 187 193 203 207 189 217 201 222 203 219 220 236 240 248 232 228 238 213 220 222 214 206 208 211 210 218 219 212 213 212 199 196 198 201 201 200 200 200 200 200 200 200 196 192 192 191 193 195 192 192 194 192 192 193 193 192 194 193
192 203 188 203 194 194 196 196 205 194 193 195 198 212 204 230 233 235 239 246 273 79 229 194 225 221 226 227 230 217 216 221 223 216 212 208 199 200 201 203 203 202 201 201 200 197 199 198 195 194 194 194 194 194 195 195 194 194 195 194 194 193 194
196 209 184 200 203 194 198 197 203 195 202 206 201 210 195 212 232 249 251 270 252 109 116 129 100 148 196 212 219 231 229 233 219 217 218 194 201 206 207 210 208 204 199 200 199 196 197 200 200 197 195 196 197 198 197 195 195 196 196 195 194 191 193
202 210 177 192 205 198 204 208 209 200 207 203 209 218 203 213 209 216 219 237 234 141 143 255 247 238 234 215 212 221 225 218 224 244 259 239 190 189 198 204 206 207 203 195 198 197 199 199 200 199 197 198 198 198 198 196 197 197 196 194 192 192 194
172 185 181 201 206 212 213 206 205 211 209 208 215 224 230 236 219 219 211 227 222 158 175 174 158 171 169 185 182 206 232 222 237 238 192 183 176 177 191 194 195 195 198 194 197 199 197 198 199 199 199 200 199 198 197 198 199 197 195 193 192 193 195
193 188 191 195 194 204 205 217 203 209 211 206 206 214 213 231 216 223 225 222 109 102 159 150 171 173 182 261 291 232 203 230 261 287 93 132 179 191 202 196 195 199 198 196 194 199 199 198 200 199 202 201 202 201 200 199 198 195 194 193 193 192 195
227 218 48 28 301 190 207 200 213 203 209 210 213 221 221 216 213 231 227 239 160 160 162 183 167 160 164 170 217 230 243 263 136 128 212 241 202 201 205 197 198 195 200 203 200 198 199 200 200 201 202 205 205 203 203 202 199 195 194 193 194 195 195
13 11 344 17 348 214 198 203 204 214 206 207 214 214 220 205 219 231 218 211 236 187 165 167 185 224 239 255 274 268 237 47 346 349 333 241 216 200 182 186 192 200 204 207 207 204 204 203 203 204 203 204 204 204 205 203 200 197 194 194 194 197 196
352 322 346 352 295 287 346 219 203 204 210 210 216 221 226 221 223 237 198 214 223 233 234 225 233 236 259 258 269 290 316 307 285 274 330 323 245 184 184 188 197 204 205 208 211 213 210 210 210 208 207 206 205 204 204 202 202 201 196 194 195 196 197
264 219 225 216 209 192 218 222 221 218 214 218 225 231 230 230 235 241 250 238 235 231 242 249 255 256 258 266 275 281 277 277 301 309 298 297 262 219 208 195 197 204 211 208 206 209 209 211 211 210 208 207 205 204 203 200 201 201 196 196 196 196 198
220 210 210 178 226 225 239 233 236 230 230 232 228 233 234 245 247 241 239 244 249 238 250 265 264 259 263 267 268 274 288 294 292 291 285 276 269 272 260 203 191 193 205 207 206 206 206 207 208 209 209 208 207 208 205 203 201 200 196 196 197 198 200
211 183 207 200 239 248 247 241 231 226 222 224 216 222 221 226 230 243 249 249 243 244 247 254 265 273 274 272 273 272 270 273 280 278 274 266 256 262 283 293 234 182 200 204 210 211 210 208 206 208 209 208 206 210 206 205 202 197 197 197 198 199 200
210 144 191 221 251 260 246 230 224 222 223 229 228 227 224 226 228 233 234 241 251 257 254 256 244 249 255 256 258 266 268 271 276 278 277 274 277 286 292 295 269 247 238 221 210 220 217 213 211 210 207 207 209 209 208 205 200 198 201 200 198 198 196
208 120 217 275 228 224 236 255 212 214 216 211 220 221 221 221 216 238 247 258 255 242 239 242 252 256 259 263 263 261 265 267 267 270 274 281 288 290 293 294 288 277 243 243 241 225 225 223 218 213 209 211 211 207 205 200 202 202 200 202 196 195 193
246 243 245 217 221 228 77 113 73 133 218 230 237 239 236 233 225 233 242 245 250 258 262 272 280 284 281 272 274 276 273 283 278 275 277 280 282 285 285 280 277 264 243 246 246 246 243 237 226 219 215 215 210 205 201 199 198 198 199 200 199 194 192
269 265 215 216 210 46 169 108 83 88 157 196 228 243 238 241 246 258 261 255 256 254 255 258 262 265 279 292 285 276 273 269 265 267 270 270 272 274 278 292 304 288 268 263 266 266 255 239 232 224 220 212 208 207 202 202 200 197 197 197 200 197 194
243 229 232 234 19 294 210 158 151 163 165 153 213 225 216 190 75 265 258 271 268 270 278 291 282 315 316 281 270 266 263 256 249 254 262 268 271 279 284 284 284 290 282 269 269 261 245 246 239 228 219 211 210 206 201 201 198 198 195 195 199 199 198
232 243 241 237 239 245 225 137 111 90 91 33 26 293 191 113 101 76 245 254 270 279 290 290 315 306 280 268 264 259 256 247 241 243 255 264 275 279 287 293 287 277 267 264 254 250 251 241 241 236 217 210 206 206 204 199 197 198 197 198 197 198 198
216 226 241 233 233 231 68 119 117 94 121 88 134 178 238 110 85 89 302 276 292 297 309 317 317 261 249 254 258 18 357 6 348 285 268 273 289 306 306 303 298 299 301 289 278 257 248 245 230 222 218 209 206 205 204 202 198 200 203 203 199 197 194
232 235 226 232 228 245 160 147 104 104 98 121 217 234 220 113 61 34 330 312 311 314 317 307 275 247 243 248 17 1 348 348 350 332 320 313 318 305 311 312 333 315 298 280 256 245 232 227 229 212 208 207 210 202 200 203 203 205 208 206 200 194 187
222 232 246 255 243 249 159 179 125 105 44 289 216 228 75 158 12 321 322 296 311 307 301 295 269 247 284 314 322 332 333 313 326 333 322 309 313 318 332 355 344 313 301 300 305 320 17 334 245 214 202 199 204 199 196 203 212 209 203 198 193 190 185
221 216 231 236 260 278 314 222 248 193 263 213 237 65 227 193 256 199 270 297 298 307 283 281 276 289 295 295 298 296 307 321 322 320 327 331 336 350 6 350 353 338 331 344 310 357 19 213 214 213 203 200 199 192 193 204 211 211 197 189 186 183 184
227 229 229 224 226 116 359 6 234 221 238 350 19 313 169 255 282 295 291 292 311 305 289 285 289 288 289 292 299 311 307 301 309 323 338 340 342 349 355 356 6 351 4 354 5 358 9 18 25 175 189 188 194 194 201 202 201 201 197 188 187 186 186
220 211 216 209 121 20 5 356 290 17 318 347 340 340 293 62 310 308 308 302 337 319 297 293 294 294 290 291 296 297 287 284 284 294 322 327 319 330 353 1 358 339 38 21 22 20 13 16 26 39 157 170 180 180 156 116 175 178 184 188 189 190 191
304 258 259 349 327 304 326 331 331 340 330 330 347 319 320 314 327 357 289 311 301 299 299 288 290 292 289 292 294 293 301 301 295 292 311 340 320 329 4 8 12 17 36 27 28 29 27 26 27 34 53 114 117 97 66 86 144 166 177 180 186 194 195
299 281 273 280 281 291 301 335 329 330 328 329 328 337 323 337 324 320 315 318 306 301 297 287 275 279 289 291 285 275 275 278 276 275 287 346 5 14 21 22 29 40 52 49 42 39 38 36 41 40 49 62 69 57 46 51 143 174 190 189 192 196 195
293 273 254 264 275 286 306 308 316 311 310 320 334 327 330 323 316 305 303 306 312 306 323 354 340 313 326 290 278 286 280 273 284 304 341 25 35 33 28 25 32 55 56 56 48 44 45 41 46 55 59 66 72 73 60 81 157 181 193 190 192 194 197
255 268 288 297 295 294 292 288 293 307 308 309 316 320 314 315 306 294 305 298 345 288 1 1 336 337 5 356 339 311 344 359 3 12 19 29 52 55 43 42 45 65 68 68 63 60 58 54 53 55 57 57 49 48 55 30 51 155 157 173 186 186 191
270 270 266 269 279 279 275 274 267 281 312 314 322 314 308 307 294 280 243 10 73 79 98 88 31 31 34 5 333 340 19 17 24 29 34 28 32 36 47 44 39 53 65 74 75 72 65 58 58 57 55 54 56 53 46 34 30 60 94 139 140 136 147
257 256 261 275 261 257 255 254 350 341 326 316 312 315 309 303 305 295 268 184 102 73 62 57 57 46 31 9 341 30 19 23 28 32 24 33 46 55 58 58 53 57 57 70 77 73 71 67 69 67 64 63 61 57 54 63 78 86 79 82 95 110 136
258 257 258 268 288 288 284 290 296 305 312 306 305 308 310 300 296 300 288 226 136 96 84 77 75 68 49 30 18 40 46 33 35 42 43 44 53 62 63 80 76 65 61 63 69 70 70 72 71 66 63 59 52 50 54 56 77 101 108 109 112 113 109
268 271 277 279 277 274 281 286 291 291 295 296 292 294 294 294 288 284 279 283 141 108 80 85 92 84 66 50 47 56 56 53 55 68 69 74 71 67 65 70 72 76 71 58 57 67 68 73 78 74 69 57 48 43 39 48 63 72 89 110 114 113 111
267 275 280 278 274 274 276 281 281 280 279 279 281 285 288 285 274 267 262 278 93 97 105 130 120 95 87 76 66 62 66 66 56 60 74 74 69 67 73 75 76 77 78 82 85 81 81 82 83 78 68 60 53 52 54 55 59 69 76 85 93 95 104